Time,TemperatureF,DewpointF,PressureIn,WindDirection,WindDirectionDegrees,WindSpeedMPH,WindSpeedGustMPH,Humidity,HourlyPrecipIn,Conditions,Clouds,dailyrainin,SoftwareType,DateUTC
2013-03-14 00:12:00,26.0,24.0,-100.00,WNW,295,1.0,1.0,93,0.00,,,-99.99,,2013-03-14 04:12:00,
2013-03-14 00:22:00,26.0,24.0,-100.00,SW,235,1.0,1.0,94,0.00,,,-99.99,,2013-03-14 04:22:00,
2013-03-14 00:32:00,26.0,24.0,-100.00,ESE,110,0.0,1.0,94,0.00,,,-99.99,,2013-03-14 04:32:00,
2013-03-14 00:42:00,26.0,24.0,-100.00,East,95,1.0,1.0,94,0.00,,,-99.99,,2013-03-14 04:42:00,
2013-03-14 00:52:00,26.0,24.0,-100.00,SSW,195,1.0,1.0,94,0.00,,,-99.99,,2013-03-14 04:52:00,
2013-03-14 01:02:00,26.0,24.0,-100.00,West,260,1.0,1.0,94,0.00,,,-99.99,,2013-03-14 05:02:00,
2013-03-14 01:12:00,25.0,24.0,-100.00,WSW,250,0.0,1.0,94,0.00,,,-99.99,,2013-03-14 05:12:00,
2013-03-14 01:22:00,25.0,24.0,-100.00,North,355,1.0,1.0,94,0.00,,,-99.99,,2013-03-14 05:22:00,
2013-03-14 01:33:00,25.0,24.0,-100.00,NNW,345,1.0,1.0,94,0.00,,,-99.99,,2013-03-14 05:33:00,
2013-03-14 01:42:00,25.0,23.0,-100.00,WNW,300,0.0,1.0,94,0.00,,,-99.99,,2013-03-14 05:42:00,
2013-03-14 01:52:00,24.0,23.0,-100.00,North,0,1.0,1.0,94,0.00,,,-99.99,,2013-03-14 05:52:00,
2013-03-14 02:02:00,24.0,23.0,-100.00,East,80,1.0,1.0,94,0.00,,,-99.99,,2013-03-14 06:02:00,
2013-03-14 02:22:00,24.0,23.0,-100.00,West,260,0.0,1.0,94,0.00,,,-99.99,,2013-03-14 06:22:00,
2013-03-14 02:32:00,24.0,23.0,-100.00,WNW,300,0.0,1.0,94,0.00,,,-99.99,,2013-03-14 06:32:00,
2013-03-14 02:42:00,24.0,23.0,-100.00,West,280,0.0,1.0,94,0.00,,,-99.99,,2013-03-14 06:42:00,
2013-03-14 02:52:00,24.0,23.0,-100.00,WNW,295,0.0,1.0,94,0.00,,,-99.99,,2013-03-14 06:52:00,
2013-03-14 03:02:00,24.0,23.0,-100.00,WSW,245,1.0,2.0,94,0.00,,,-99.99,,2013-03-14 07:02:00,
2013-03-14 03:12:00,25.0,24.0,-100.00,East,90,1.0,2.0,94,0.00,,,-99.99,,2013-03-14 07:12:00,
2013-03-14 03:22:00,24.0,23.0,-100.00,SE,140,2.0,4.0,94,0.00,,,-99.99,,2013-03-14 07:22:00,
2013-03-14 03:32:00,25.0,23.0,-100.00,SSE,155,1.0,2.0,94,0.00,,,-99.99,,2013-03-14 07:32:00,
2013-03-14 03:42:00,25.0,24.0,-100.00,SSE,165,0.0,2.0,94,0.00,,,-99.99,,2013-03-14 07:42:00,
2013-03-14 03:52:00,26.0,24.0,-100.00,NW,320,1.0,3.0,94,0.00,,,-99.99,,2013-03-14 07:52:00,
2013-03-14 04:02:00,26.0,24.0,-100.00,SSE,165,0.0,2.0,94,0.00,,,-99.99,,2013-03-14 08:02:00,
2013-03-14 04:12:00,26.0,24.0,-100.00,NNE,25,1.0,2.0,94,0.00,,,-99.99,,2013-03-14 08:12:00,
2013-03-14 04:22:00,26.0,24.0,-100.00,SE,135,0.0,1.0,94,0.00,,,-99.99,,2013-03-14 08:22:00,
2013-03-14 04:32:00,26.0,24.0,-100.00,SW,215,1.0,3.0,94,0.00,,,-99.99,,2013-03-14 08:32:00,
2013-03-14 04:42:00,26.0,24.0,-100.00,SW,215,1.0,3.0,94,0.00,,,-99.99,,2013-03-14 08:42:00,
2013-03-14 04:52:00,26.0,24.0,-100.00,SW,215,1.0,3.0,94,0.00,,,-99.99,,2013-03-14 08:52:00,
2013-03-14 05:01:00,27.0,24.0,-100.00,SW,235,1.0,4.0,91,0.00,,,-99.99,,2013-03-14 09:01:00,
2013-03-14 05:12:00,27.0,24.0,-100.00,WSW,250,1.0,2.0,91,0.00,,,-99.99,,2013-03-14 09:12:00,
2013-03-14 05:22:00,26.0,24.0,-100.00,SW,220,1.0,4.0,90,0.00,,,-99.99,,2013-03-14 09:22:00,
2013-03-14 05:32:00,27.0,24.0,-100.00,SW,235,1.0,3.0,89,0.00,,,-99.99,,2013-03-14 09:32:00,
2013-03-14 05:42:00,27.0,23.0,-100.00,West,265,2.0,6.0,87,0.00,,,-99.99,,2013-03-14 09:42:00,
2013-03-14 05:52:00,27.0,22.0,-100.00,West,270,2.0,7.0,82,0.00,,,-99.99,,2013-03-14 09:52:00,
2013-03-14 06:02:00,27.0,22.0,-100.00,SW,230,0.0,4.0,82,0.00,,,-99.99,,2013-03-14 10:02:00,
2013-03-14 06:12:00,27.0,22.0,-100.00,West,265,1.0,2.0,82,0.00,,,-99.99,,2013-03-14 10:12:00,
2013-03-14 06:22:00,27.0,22.0,-100.00,SW,235,2.0,7.0,80,0.00,,,-99.99,,2013-03-14 10:22:00,
2013-03-14 06:32:00,27.0,21.0,-100.00,North,-999,-999.0,-999.0,79,-99.99,,,-99.99,,2013-03-14 10:32:00,
2013-03-14 06:42:00,27.0,20.0,-100.00,WNW,290,2.0,6.0,76,0.00,,,-99.99,,2013-03-14 10:42:00,
2013-03-14 06:52:00,27.0,21.0,-100.00,NW,325,2.0,4.0,77,0.00,,,-99.99,,2013-03-14 10:52:00,
2013-03-14 07:02:00,27.0,20.0,-100.00,WNW,295,2.0,5.0,74,0.00,,,-99.99,,2013-03-14 11:02:00,
2013-03-14 07:12:00,27.0,20.0,-100.00,WSW,250,1.0,7.0,73,0.00,,,-99.99,,2013-03-14 11:12:00,
2013-03-14 07:22:00,27.0,20.0,-100.00,South,185,1.0,2.0,73,0.00,,,-99.99,,2013-03-14 11:22:00,
2013-03-14 07:33:00,27.0,20.0,-100.00,SW,235,1.0,4.0,76,0.00,,,-99.99,,2013-03-14 11:33:00,
2013-03-14 07:42:00,27.0,21.0,-100.00,WSW,245,1.0,6.0,77,0.01,,,-99.99,,2013-03-14 11:42:00,
2013-03-14 07:52:00,27.0,20.0,-100.00,West,265,3.0,4.0,75,0.00,,,-99.99,,2013-03-14 11:52:00,
2013-03-14 08:02:00,27.0,19.0,-100.00,West,260,1.0,5.0,71,0.00,,,-99.99,,2013-03-14 12:02:00,
2013-03-14 08:12:00,27.0,19.0,-100.00,West,280,1.0,5.0,70,0.00,,,-99.99,,2013-03-14 12:12:00,
2013-03-14 08:22:00,27.0,19.0,-100.00,West,275,2.0,7.0,69,0.00,,,-99.99,,2013-03-14 12:22:00,
2013-03-14 08:33:00,28.0,19.0,-100.00,West,265,2.0,7.0,68,0.00,,,-99.99,,2013-03-14 12:33:00,
2013-03-14 08:42:00,29.0,19.0,-100.00,WNW,290,3.0,8.0,65,0.00,,,-99.99,,2013-03-14 12:42:00,
2013-03-14 08:52:00,27.0,18.0,-100.00,WNW,290,3.0,13.0,67,0.00,,,-99.99,,2013-03-14 12:52:00,
2013-03-14 09:02:00,28.0,18.0,-100.00,West,265,2.0,8.0,66,0.00,,,-99.99,,2013-03-14 13:02:00,
2013-03-14 09:12:00,28.0,18.0,-100.00,West,270,4.0,9.0,65,0.00,,,-99.99,,2013-03-14 13:12:00,
2013-03-14 09:22:00,28.0,17.0,-100.00,WNW,290,4.0,10.0,64,0.00,,,-99.99,,2013-03-14 13:22:00,
2013-03-14 09:32:00,27.0,17.0,-100.00,NW,320,5.0,11.0,64,0.00,,,-99.99,,2013-03-14 13:32:00,
2013-03-14 09:42:00,28.0,18.0,-100.00,NW,315,1.0,11.0,65,0.00,,,-99.99,,2013-03-14 13:42:00,
2013-03-14 09:52:00,27.0,16.0,-100.00,NW,325,6.0,10.0,62,0.00,,,-99.99,,2013-03-14 13:52:00,
2013-03-14 10:02:00,27.0,16.0,-100.00,West,270,4.0,7.0,60,0.00,,,-99.99,,2013-03-14 14:02:00,
2013-03-14 10:12:00,27.0,17.0,-100.00,West,270,2.0,9.0,62,0.00,,,-99.99,,2013-03-14 14:12:00,
2013-03-14 10:22:00,28.0,17.0,-100.00,West,275,4.0,7.0,63,0.00,,,-99.99,,2013-03-14 14:22:00,
2013-03-14 10:32:00,27.0,17.0,-100.00,WSW,255,3.0,12.0,64,0.00,,,-99.99,,2013-03-14 14:32:00,
2013-03-14 10:42:00,27.0,17.0,-100.00,WNW,290,2.0,11.0,63,0.00,,,-99.99,,2013-03-14 14:42:00,
2013-03-14 10:52:00,27.0,17.0,-100.00,NW,325,5.0,9.0,66,0.10,,,-99.99,,2013-03-14 14:52:00,
2013-03-14 11:02:00,26.0,17.0,-100.00,NW,315,5.0,9.0,67,0.08,,,-99.99,,2013-03-14 15:02:00,
2013-03-14 11:12:00,27.0,17.0,-100.00,West,260,1.0,9.0,66,0.07,,,-99.99,,2013-03-14 15:12:00,
2013-03-14 11:22:00,28.0,17.0,-100.00,South,175,0.0,4.0,63,0.00,,,-99.99,,2013-03-14 15:22:00,
2013-03-14 11:33:00,28.0,16.0,-100.00,NNW,335,4.0,8.0,60,0.00,,,-99.99,,2013-03-14 15:33:00,
2013-03-14 11:43:00,27.0,15.0,-100.00,NW,325,9.0,12.0,61,0.00,,,-99.99,,2013-03-14 15:43:00,
2013-03-14 11:52:00,27.0,16.0,-100.00,NNW,335,7.0,11.0,62,0.00,,,-99.99,,2013-03-14 15:52:00,
2013-03-14 12:03:00,27.0,15.0,-100.00,NNW,340,8.0,12.0,58,0.00,,,-99.99,,2013-03-14 16:03:00,
2013-03-14 12:12:00,28.0,15.0,-100.00,NNW,330,7.0,15.0,56,0.00,,,-99.99,,2013-03-14 16:12:00,
2013-03-14 12:23:00,28.0,14.0,-100.00,NNW,345,9.0,13.0,55,0.00,,,-99.99,,2013-03-14 16:23:00,
2013-03-14 12:32:00,28.0,14.0,-100.00,NW,305,5.0,12.0,53,0.00,,,-99.99,,2013-03-14 16:32:00,
2013-03-14 12:42:00,27.0,14.0,-100.00,NNW,345,10.0,16.0,57,0.00,,,-99.99,,2013-03-14 16:42:00,
2013-03-14 12:52:00,27.0,13.0,-100.00,WNW,300,8.0,12.0,54,0.00,,,-99.99,,2013-03-14 16:52:00,
2013-03-14 13:02:00,28.0,14.0,-100.00,NW,320,6.0,16.0,56,0.00,,,-99.99,,2013-03-14 17:02:00,
2013-03-14 13:12:00,27.0,12.0,-100.00,NNW,335,9.0,13.0,52,0.00,,,-99.99,,2013-03-14 17:12:00,
2013-03-14 13:23:00,27.0,12.0,-100.00,NNW,330,11.0,19.0,53,0.00,,,-99.99,,2013-03-14 17:23:00,
2013-03-14 13:32:00,27.0,12.0,-100.00,NNW,335,6.0,12.0,52,0.00,,,-99.99,,2013-03-14 17:32:00,
2013-03-14 13:42:00,27.0,10.0,-100.00,NNW,345,11.0,16.0,48,0.00,,,-99.99,,2013-03-14 17:42:00,
2013-03-14 13:52:00,27.0,11.0,-100.00,North,350,12.0,17.0,50,0.00,,,-99.99,,2013-03-14 17:52:00,
2013-03-14 14:03:00,27.0,10.0,-100.00,NNW,335,6.0,16.0,48,0.00,,,-99.99,,2013-03-14 18:03:00,
2013-03-14 14:12:00,26.0,8.0,-100.00,NNW,335,10.0,17.0,44,0.00,,,-99.99,,2013-03-14 18:12:00,
2013-03-14 14:23:00,26.0,9.0,-100.00,NNW,340,9.0,15.0,47,0.00,,,-99.99,,2013-03-14 18:23:00,
2013-03-14 14:33:00,26.0,9.0,-100.00,NNW,345,10.0,16.0,47,0.00,,,-99.99,,2013-03-14 18:33:00,
2013-03-14 14:43:00,26.0,9.0,-100.00,NNW,340,10.0,16.0,47,0.00,,,-99.99,,2013-03-14 18:43:00,
2013-03-14 14:52:00,27.0,10.0,-100.00,NW,310,7.0,17.0,48,0.00,,,-99.99,,2013-03-14 18:52:00,
2013-03-14 15:03:00,27.0,10.0,-100.00,NNW,330,11.0,19.0,48,0.00,,,-99.99,,2013-03-14 19:03:00,
2013-03-14 15:12:00,26.0,8.0,-100.00,NNW,335,10.0,20.0,46,0.00,,,-99.99,,2013-03-14 19:12:00,
2013-03-14 15:23:00,26.0,9.0,-100.00,NW,315,8.0,17.0,47,0.00,,,-99.99,,2013-03-14 19:23:00,
2013-03-14 15:32:00,25.0,8.0,-100.00,NNW,340,12.0,19.0,47,0.00,,,-99.99,,2013-03-14 19:32:00,
2013-03-14 15:42:00,25.0,8.0,-100.00,NW,325,13.0,21.0,47,0.00,,,-99.99,,2013-03-14 19:42:00,
2013-03-14 15:52:00,25.0,9.0,-100.00,NNW,335,13.0,21.0,50,0.00,,,-99.99,,2013-03-14 19:52:00,
2013-03-14 16:02:00,24.0,8.0,-100.00,NW,320,9.0,19.0,50,0.00,,,-99.99,,2013-03-14 20:02:00,
2013-03-14 16:12:00,24.0,8.0,-100.00,North,-999,-999.0,-999.0,51,-99.99,,,-99.99,,2013-03-14 20:12:00,
2013-03-14 16:22:00,23.0,8.0,-100.00,NNW,330,12.0,21.0,50,0.00,,,-99.99,,2013-03-14 20:22:00,
2013-03-14 16:32:00,22.0,7.0,-100.00,NNW,335,11.0,21.0,50,0.00,,,-99.99,,2013-03-14 20:32:00,
2013-03-14 16:42:00,22.0,7.0,-100.00,North,5,7.0,18.0,50,0.00,,,-99.99,,2013-03-14 20:42:00,
2013-03-14 16:52:00,22.0,6.0,-100.00,NNW,340,12.0,24.0,50,0.00,,,-99.99,,2013-03-14 20:52:00,
2013-03-14 17:02:00,21.0,6.0,-100.00,NNW,345,7.0,19.0,51,0.00,,,-99.99,,2013-03-14 21:02:00,
2013-03-14 17:12:00,21.0,5.0,-100.00,NNW,335,11.0,17.0,50,0.00,,,-99.99,,2013-03-14 21:12:00,
2013-03-14 17:22:00,20.0,4.0,-100.00,NNW,345,11.0,21.0,48,0.00,,,-99.99,,2013-03-14 21:22:00,
2013-03-14 17:33:00,20.0,3.0,-100.00,North,355,8.0,18.0,48,0.00,,,-99.99,,2013-03-14 21:33:00,
2013-03-14 17:43:00,19.0,4.0,-100.00,NNW,340,10.0,17.0,49,0.00,,,-99.99,,2013-03-14 21:43:00,
2013-03-14 17:53:00,18.0,2.0,-100.00,NNW,330,9.0,22.0,48,0.00,,,-99.99,,2013-03-14 21:53:00,
2013-03-14 18:03:00,18.0,2.0,-100.00,North,355,9.0,17.0,49,0.00,,,-99.99,,2013-03-14 22:03:00,
2013-03-14 18:13:00,17.0,1.0,-100.00,NNW,330,11.0,20.0,47,0.00,,,-99.99,,2013-03-14 22:13:00,
2013-03-14 18:23:00,17.0,1.0,-100.00,NNW,340,10.0,21.0,48,0.00,,,-99.99,,2013-03-14 22:23:00,
2013-03-14 18:33:00,16.0,0.0,-100.00,NW,325,13.0,21.0,48,0.00,,,-99.99,,2013-03-14 22:33:00,
2013-03-14 18:42:00,17.0,1.0,-100.00,NNW,335,7.0,16.0,49,0.00,,,-99.99,,2013-03-14 22:42:00,
2013-03-14 18:52:00,16.0,1.0,-100.00,North,355,8.0,12.0,51,0.00,,,-99.99,,2013-03-14 22:52:00,
2013-03-14 19:02:00,16.0,2.0,-100.00,NW,320,6.0,15.0,53,0.00,,,-99.99,,2013-03-14 23:02:00,
2013-03-14 19:12:00,16.0,2.0,-100.00,NNW,340,9.0,17.0,53,0.00,,,-99.99,,2013-03-14 23:12:00,
2013-03-14 19:22:00,16.0,2.0,-100.00,NNW,340,6.0,17.0,53,0.00,,,-99.99,,2013-03-14 23:22:00,
2013-03-14 19:33:00,15.0,1.0,-100.00,NNW,335,9.0,14.0,52,0.00,,,-99.99,,2013-03-14 23:33:00,
2013-03-14 19:42:00,15.0,2.0,-100.00,NNW,335,4.0,15.0,53,0.00,,,-99.99,,2013-03-14 23:42:00,
2013-03-14 20:02:00,15.0,0.0,-100.00,NW,315,9.0,16.0,50,0.00,,,-99.99,,2013-03-15 00:02:00,
2013-03-14 20:12:00,15.0,0.0,-100.00,NNW,335,6.0,12.0,51,0.00,,,-99.99,,2013-03-15 00:12:00,
2013-03-14 20:23:00,15.0,1.0,-100.00,NW,310,5.0,12.0,52,0.00,,,-99.99,,2013-03-15 00:23:00,
2013-03-14 20:32:00,15.0,2.0,-100.00,North,0,6.0,9.0,53,0.00,,,-99.99,,2013-03-15 00:32:00,
2013-03-14 20:42:00,15.0,1.0,-100.00,NNW,345,9.0,18.0,53,0.00,,,-99.99,,2013-03-15 00:42:00,
2013-03-14 20:52:00,15.0,2.0,-100.00,North,355,7.0,13.0,54,0.00,,,-99.99,,2013-03-15 00:52:00,
2013-03-14 21:02:00,15.0,2.0,-100.00,NW,325,5.0,12.0,55,0.00,,,-99.99,,2013-03-15 01:02:00,
2013-03-14 21:12:00,15.0,2.0,-100.00,NNW,330,6.0,9.0,55,0.00,,,-99.99,,2013-03-15 01:12:00,
2013-03-14 21:22:00,15.0,1.0,-100.00,NW,325,7.0,13.0,54,0.00,,,-99.99,,2013-03-15 01:22:00,
2013-03-14 21:32:00,15.0,1.0,-100.00,North,355,7.0,12.0,54,0.00,,,-99.99,,2013-03-15 01:32:00,
2013-03-14 21:42:00,15.0,2.0,-100.00,NNW,330,7.0,13.0,55,0.00,,,-99.99,,2013-03-15 01:42:00,
2013-03-14 21:52:00,15.0,2.0,-100.00,NNW,335,6.0,9.0,56,0.00,,,-99.99,,2013-03-15 01:52:00,
2013-03-14 22:02:00,14.0,2.0,-100.00,NNW,335,4.0,10.0,57,0.00,,,-99.99,,2013-03-15 02:02:00,
2013-03-14 22:12:00,14.0,2.0,-100.00,NNW,330,6.0,11.0,56,0.00,,,-99.99,,2013-03-15 02:12:00,
2013-03-14 22:22:00,14.0,2.0,-100.00,NNW,340,6.0,10.0,57,0.00,,,-99.99,,2013-03-15 02:22:00,
2013-03-14 22:32:00,14.0,2.0,-100.00,NW,320,3.0,12.0,58,0.00,,,-99.99,,2013-03-15 02:32:00,
2013-03-14 22:42:00,14.0,3.0,-100.00,NW,320,3.0,7.0,59,0.00,,,-99.99,,2013-03-15 02:42:00,
2013-03-14 22:52:00,14.0,2.0,-100.00,NNW,330,3.0,11.0,59,0.00,,,-99.99,,2013-03-15 02:52:00,
2013-03-14 23:02:00,14.0,2.0,-100.00,NW,315,6.0,10.0,59,0.00,,,-99.99,,2013-03-15 03:02:00,
2013-03-14 23:12:00,14.0,3.0,-100.00,NW,320,6.0,11.0,60,0.00,,,-99.99,,2013-03-15 03:12:00,
2013-03-14 23:22:00,14.0,4.0,-100.00,West,280,2.0,8.0,63,0.00,,,-99.99,,2013-03-15 03:22:00,
2013-03-14 23:33:00,14.0,3.0,-100.00,NNW,330,8.0,14.0,61,0.00,,,-99.99,,2013-03-15 03:33:00,
2013-03-14 23:43:00,13.0,3.0,-100.00,NNW,330,4.0,15.0,62,0.00,,,-99.99,,2013-03-15 03:43:00,
2013-03-14 23:52:00,13.0,3.0,-100.00,NNW,345,7.0,11.0,62,0.00,,,-99.99,,2013-03-15 03:52:00,